GW4611 Weather Reports


Display with metric or nautical units.
time (UTC)temp
F
wind
direction
speed
MPH
gust
MPH
rain 1hr
in
rain 24hr
in
rain mn
in
humidity
%
barometer
mb
20260508002137 57 355 0.0 0.0 0.00 0.00 0.00 44 1012.7
20260508001631 58 318 0.0 0.0 0.00 0.00 0.00 44 1012.7
20260508001128 58 312 3.0 3.0 0.00 0.00 0.00 43 1012.6
20260508000623 58 296 1.0 3.0 0.00 0.00 0.00 43 1012.8
20260508000121 59 342 3.0 4.0 0.00 0.00 0.00 42 1012.3
20260507235618 59 281 2.0 6.0 0.00 0.00 0.00 40 1012.2
20260507235115 59 288 5.0 8.0 0.00 0.00 0.00 40 1012.4
20260507234611 60 255 2.0 8.0 0.00 0.00 0.00 41 1012.4
20260507234108 60 311 2.0 11.0 0.00 0.00 0.00 40 1012.0
20260507233605 60 287 2.0 4.0 0.00 0.00 0.00 40 1012.2
20260507233104 60 310 1.0 7.0 0.00 0.00 0.00 42 1011.8
20260507232600 61 282 5.0 8.0 0.00 0.00 0.00 39 1012.1
20260507232057 62 297 3.0 7.0 0.00 0.00 0.00 38 1012.0
20260507231553 62 41 1.0 6.0 0.00 0.00 0.00 38 1011.9
20260507231051 62 242 0.0 4.0 0.00 0.00 0.00 37 1011.6
20260507230547 62 268 5.0 7.0 0.00 0.00 0.00 36 1011.7
20260507230044 63 303 2.0 8.0 0.00 0.00 0.00 36 1011.5
20260507225538 64 314 3.0 8.0 0.00 0.00 0.00 37 1011.6
20260507225035 65 282 2.0 7.0 0.00 0.00 0.00 35 1011.7
20260507224531 64 256 5.0 10.0 0.00 0.00 0.00 35 1011.4
20260507224028 64 287 4.0 10.0 0.00 0.00 0.00 36 1011.6
20260507223524 64 38 1.0 8.0 0.00 0.00 0.00 36 1011.3
20260507223021 64 267 3.0 7.0 0.00 0.00 0.00 37 1011.2
20260507222518 63 320 2.0 4.0 0.00 0.00 0.00 39 1011.4
20260507222014 63 334 3.0 7.0 0.00 0.00 0.00 39 1011.2
20260507221511 64 274 3.0 6.0 0.00 0.00 0.00 37 1010.9
20260507221008 65 193 1.0 4.0 0.00 0.00 0.00 35 1011.1
20260507220505 66 270 6.0 9.0 0.00 0.00 0.00 33 1011.2
20260507220002 66 136 1.0 4.0 0.00 0.00 0.00 35 1011.0
20260507215458 66 227 4.0 7.0 0.00 0.00 0.00 34 1011.1
20260507214956 66 315 6.0 10.0 0.00 0.00 0.00 35 1010.7
20260507214453 67 206 8.0 15.0 0.00 0.00 0.00 34 1010.7
20260507213949 67 305 3.0 7.0 0.00 0.00 0.00 38 1010.6
20260507213445 67 197 8.0 10.0 0.00 0.00 0.00 34 1010.1
20260507212943 66 33 2.0 9.0 0.00 0.00 0.00 37 1010.4
20260507212438 66 21 6.0 9.0 0.00 0.00 0.00 37 1010.5
20260507211936 67 299 6.0 8.0 0.00 0.00 0.00 36 1010.6
20260507211432 67 270 2.0 7.0 0.00 0.00 0.00 36 1010.4
20260507210929 67 209 3.0 7.0 0.00 0.00 0.00 36 1010.4
20260507210426 67 10 4.0 6.0 0.00 0.00 0.00 36 1010.0
20260507205923 68 355 5.0 10.0 0.00 0.00 0.00 35 1010.2
20260507205420 67 325 3.0 6.0 0.00 0.00 0.00 37 1010.1
20260507204916 67 335 2.0 4.0 0.00 0.00 0.00 37 1010.2
20260507204412 68 272 3.0 10.0 0.00 0.00 0.00 36 1010.4
20260507203910 68 319 8.0 15.0 0.00 0.00 0.00 35 1010.4
20260507203408 69 5 1.0 7.0 0.00 0.00 0.00 34 1010.2
20260507202904 69 324 3.0 8.0 0.00 0.00 0.00 35 1010.4
20260507202400 70 325 3.0 7.0 0.00 0.00 0.00 35 1010.5
20260507201856 70 38 1.0 10.0 0.00 0.00 0.00 35 1010.4
20260507201351 69 335 2.0 7.0 0.00 0.00 0.00 35 1010.3
20260507200848 68 25 1.0 7.0 0.00 0.00 0.00 37 1010.5
20260507200344 68 341 5.0 11.0 0.00 0.00 0.00 36 1010.6
20260507195840 68 357 9.0 13.0 0.00 0.00 0.00 36 1010.5
20260507195338 69 267 7.0 9.0 0.00 0.00 0.00 35 1010.5
20260507194835 68 234 5.0 7.0 0.00 0.00 0.00 35 1010.6
20260507194331 68 271 2.0 7.0 0.00 0.00 0.00 35 1010.5
20260507193828 68 21 4.0 13.0 0.00 0.00 0.00 37 1010.4
20260507193325 69 336 4.0 6.0 0.00 0.00 0.00 38 1010.6
20260507192820 69 202 1.0 4.0 0.00 0.00 0.00 35 1010.5
20260507192318 69 171 5.0 13.0 0.00 0.00 0.00 35 1010.5
20260507191814 68 270 2.0 14.0 0.00 0.00 0.00 36 1010.5
20260507191310 69 227 9.0 13.0 0.00 0.00 0.00 35 1010.5
20260507190807 69 319 6.0 7.0 0.00 0.00 0.00 36 1010.7
20260507190306 69 17 2.0 7.0 0.00 0.00 0.00 34 1010.7
20260507185804 68 261 6.0 8.0 0.00 0.00 0.00 38 1011.0
20260507185300 69 253 4.0 9.0 0.00 0.00 0.00 39 1010.9
20260507184758 69 29 4.0 6.0 0.00 0.00 0.00 37 1010.7
20260507184256 67 3 4.0 9.0 0.00 0.00 0.00 39 1011.0
20260507183752 68 343 4.0 8.0 0.00 0.00 0.00 38 1010.7
20260507183249 67 155 8.0 13.0 0.00 0.00 0.00 41 1010.7
20260507182747 67 349 3.0 6.0 0.00 0.00 0.00 46 1010.7
20260507182242 68 277 2.0 7.0 0.00 0.00 0.00 39 1011.1
20260507181739 68 291 3.0 4.0 0.00 0.00 0.00 46 1010.9
20260507181235 67 324 0.0 4.0 0.00 0.00 0.00 43 1010.7
20260507180732 67 20 5.0 7.0 0.00 0.00 0.00 40 1011.1
20260507180229 66 14 2.0 6.0 0.00 0.00 0.00 42 1011.1
20260507175724 66 16 4.0 9.0 0.00 0.00 0.00 46 1011.2
20260507175221 66 197 7.0 10.0 0.00 0.00 0.00 45 1011.3
20260507174719 66 161 4.0 7.0 0.00 0.00 0.00 43 1011.4
20260507174217 66 223 4.0 8.0 0.00 0.00 0.00 44 1011.3
20260507173715 65 317 2.0 8.0 0.00 0.00 0.00 49 1011.4
20260507173211 66 345 6.0 10.0 0.00 0.00 0.00 45 1011.6
20260507172708 65 32 5.0 13.0 0.00 0.00 0.00 45 1011.5
20260507172204 66 323 2.0 8.0 0.00 0.00 0.00 45 1011.6
20260507171658 66 196 2.0 6.0 0.00 0.00 0.00 45 1012.0
20260507171155 66 114 5.0 6.0 0.00 0.00 0.00 40 1011.9
20260507170652 66 207 2.0 4.0 0.00 0.00 0.00 44 1011.9
20260507170150 65 197 9.0 10.0 0.00 0.00 0.00 44 1012.0
20260507165645 66 294 7.0 10.0 0.00 0.00 0.00 42 1012.2
20260507165142 64 341 3.0 4.0 0.00 0.00 0.00 50 1012.4
20260507164637 65 134 0.0 4.0 0.00 0.00 0.00 44 1012.5
20260507164135 65 70 2.0 10.0 0.00 0.00 0.00 44 1012.3
20260507163632 65 288 4.0 9.0 0.00 0.00 0.00 45 1012.5
20260507163130 65 23 2.0 4.0 0.00 0.00 0.00 49 1012.5
20260507162626 64 144 4.0 8.0 0.00 0.00 0.00 48 1012.7
20260507162122 64 174 6.0 10.0 0.00 0.00 0.00 46 1012.7
20260507161618 63 159 3.0 7.0 0.00 0.00 0.00 47 1012.9
20260507161115 64 30 3.0 14.0 0.00 0.00 0.00 48 1012.8
20260507160611 63 322 2.0 7.0 0.00 0.00 0.00 50 1012.8
20260507160108 62 291 1.0 3.0 0.00 0.00 0.00 52 1012.8
20260507155603 61 355 8.0 13.0 0.00 0.00 0.00 52 1012.9
20260507155100 61 28 7.0 8.0 0.00 0.00 0.00 52 1013.2
20260507154557 62 11 6.0 8.0 0.00 0.00 0.00 55 1013.0
20260507154054 61 26 7.0 8.0 0.00 0.00 0.00 55 1013.1
20260507153551 61 355 0.0 4.0 0.00 0.00 0.00 57 1013.3
20260507153047 60 318 8.0 9.0 0.00 0.00 0.00 58 1013.3
20260507152543 59 2 5.0 8.0 0.00 0.00 0.00 57 1013.5
20260507152040 59 26 3.0 6.0 0.00 0.00 0.00 58 1013.6
20260507151536 58 38 5.0 6.0 0.00 0.00 0.00 58 1013.7
20260507151033 60 23 5.0 8.0 0.00 0.00 0.00 55 1013.8
20260507150530 59 28 6.0 7.0 0.00 0.00 0.00 60 1013.6
20260507150027 58 62 4.0 7.0 0.00 0.00 0.00 56 1014.0
20260507145522 58 230 0.0 0.0 0.00 0.00 0.00 57 1014.0
20260507145020 59 121 1.0 6.0 0.00 0.00 0.00 56 1014.1
20260507144516 59 343 3.0 3.0 0.00 0.00 0.00 57 1014.2
20260507144014 58 334 2.0 3.0 0.00 0.00 0.00 59 1014.2
20260507143511 58 340 6.0 8.0 0.00 0.00 0.00 63 1014.5
20260507143008 56 141 2.0 4.0 0.00 0.00 0.00 62 1014.6
20260507142503 57 273 0.0 0.0 0.00 0.00 0.00 63 1014.7
20260507142000 57 207 2.0 3.0 0.00 0.00 0.00 63 1014.7
20260507141456 56 327 2.0 4.0 0.00 0.00 0.00 63 1014.8
20260507140953 57 317 2.0 8.0 0.00 0.00 0.00 63 1014.7
20260507140450 56 290 1.0 4.0 0.00 0.00 0.00 65 1014.8
20260507135947 57 7 4.0 4.0 0.00 0.00 0.00 64 1014.9
20260507135444 56 335 0.0 2.0 0.00 0.00 0.00 63 1015.0
20260507134941 55 271 0.0 2.0 0.00 0.00 0.00 64 1015.0
20260507134438 55 16 3.0 6.0 0.00 0.00 0.00 67 1015.2
20260507133934 54 318 3.0 3.0 0.00 0.00 0.00 69 1015.2
20260507133430 53 20 2.0 3.0 0.00 0.00 0.00 67 1015.3
20260507132929 53 5 2.0 6.0 0.00 0.00 0.00 69 1015.3
20260507132424 53 318 2.0 4.0 0.00 0.00 0.00 69 1015.6
20260507131921 53 327 1.0 4.0 0.00 0.00 0.00 70 1015.5
20260507131418 53 332 2.0 4.0 0.00 0.00 0.00 71 1015.4
20260507130915 53 324 1.0 4.0 0.00 0.00 0.00 72 1015.4
20260507130412 53 3 2.0 4.0 0.00 0.00 0.00 72 1015.5
20260507125911 52 0 2.0 3.0 0.00 0.00 0.00 72 1015.6
20260507125408 52 15 1.0 4.0 0.00 0.00 0.00 72 1015.4
20260507124906 52 324 2.0 6.0 0.00 0.00 0.00 73 1015.6
20260507124401 52 342 2.0 2.0 0.00 0.00 0.00 76 1015.4
20260507123900 52 358 0.0 2.0 0.00 0.00 0.00 75 1015.4
20260507123357 52 4 1.0 3.0 0.00 0.00 0.00 75 1015.7
20260507122853 52 0 2.0 3.0 0.00 0.00 0.00 75 1015.4
20260507122349 52 0 4.0 4.0 0.00 0.00 0.00 76 1015.3
20260507121845 52 343 1.0 2.0 0.00 0.00 0.00 77 1015.1
20260507121340 52 12 4.0 6.0 0.00 0.00 0.00 77 1015.2
20260507120837 51 26 1.0 4.0 0.00 0.00 0.00 79 1015.1
20260507120334 51 351 1.0 2.0 0.00 0.00 0.00 82 1015.1
20260507115830 51 352 1.0 1.0 0.00 0.00 0.00 84 1015.2
20260507115326 51 336 1.0 1.0 0.00 0.00 0.00 84 1015.1
20260507114822 51 321 0.0 2.0 0.00 0.00 0.00 84 1015.3
20260507114319 51 320 1.0 2.0 0.00 0.00 0.00 84 1015.1
20260507113817 51 327 1.0 2.0 0.00 0.00 0.00 84 1015.1
20260507113313 51 322 2.0 2.0 0.00 0.00 0.00 84 1015.0
20260507112811 51 332 1.0 4.0 0.00 0.00 0.00 84 1014.7
20260507112308 51 40 3.0 6.0 0.00 0.00 0.00 84 1014.8
20260507111806 51 329 2.0 4.0 0.00 0.00 0.00 84 1014.7
20260507111302 51 337 2.0 3.0 0.00 0.00 0.00 85 1014.9
20260507110758 51 308 3.0 3.0 0.00 0.00 0.00 85 1014.6
20260507110255 51 306 3.0 7.0 0.00 0.00 0.00 84 1014.6
20260507105752 51 341 1.0 4.0 0.00 0.00 0.00 85 1014.4
20260507105247 51 26 1.0 2.0 0.00 0.00 0.00 86 1014.4
20260507104745 51 347 0.0 3.0 0.00 0.00 0.00 86 1014.5
20260507104242 51 11 0.0 0.0 0.00 0.00 0.00 87 1014.5
20260507103737 51 258 0.0 0.0 0.00 0.00 0.00 87 1014.2
20260507103234 51 240 0.0 0.0 0.00 0.00 0.00 87 1014.4
20260507102730 51 239 0.0 0.0 0.00 0.00 0.00 87 1014.4
20260507102227 51 238 0.0 0.0 0.00 0.00 0.00 87 1014.1
20260507101723 51 238 0.0 0.0 0.00 0.00 0.00 87 1014.4
20260507101218 51 238 0.0 0.0 0.00 0.00 0.00 87 1014.0
20260507100716 51 238 0.0 0.0 0.00 0.00 0.00 88 1014.0
20260507100214 51 238 0.0 0.0 0.00 0.00 0.00 87 1013.9
20260507095712 51 239 0.0 0.0 0.00 0.00 0.00 88 1014.0
20260507095208 51 246 0.0 0.0 0.00 0.00 0.00 86 1013.8
20260507094705 51 246 0.0 0.0 0.00 0.00 0.00 85 1013.6
20260507094202 51 238 0.0 0.0 0.00 0.00 0.00 87 1013.6
20260507093659 51 238 0.0 0.0 0.00 0.00 0.00 86 1013.8
20260507093158 51 238 0.0 0.0 0.00 0.00 0.00 85 1013.7
20260507092654 52 238 0.0 0.0 0.00 0.00 0.00 85 1013.9
20260507092151 52 238 0.0 0.0 0.00 0.00 0.00 85 1013.9
20260507091647 52 238 0.0 0.0 0.00 0.00 0.00 84 1013.9
20260507091144 52 237 1.0 1.0 0.00 0.00 0.00 85 1014.1
20260507090639 52 346 0.0 0.0 0.00 0.00 0.00 83 1013.9
20260507090137 52 347 0.0 0.0 0.00 0.00 0.00 83 1013.9
20260507085633 52 21 0.0 0.0 0.00 0.00 0.00 82 1013.8
20260507085130 52 22 0.0 0.0 0.00 0.00 0.00 82 1013.6
20260507084627 52 22 0.0 0.0 0.00 0.00 0.00 83 1013.7
20260507084124 52 359 0.0 0.0 0.00 0.00 0.00 83 1013.6
20260507083620 52 18 0.0 0.0 0.00 0.00 0.00 84 1013.9
20260507083117 52 9 0.0 1.0 0.00 0.00 0.00 83 1013.9
20260507082613 52 328 1.0 1.0 0.00 0.00 0.00 82 1014.0
20260507082104 52 335 1.0 1.0 0.00 0.00 0.00 80 1014.0
20260507081601 53 310 1.0 2.0 0.00 0.00 0.00 80 1013.9
20260507081058 52 184 0.0 2.0 0.00 0.00 0.00 78 1013.8
20260507080554 52 13 0.0 0.0 0.00 0.00 0.00 80 1013.6
20260507080050 52 117 0.0 0.0 0.00 0.00 0.00 83 1013.6
20260507075545 52 14 0.0 0.0 0.00 0.00 0.00 83 1013.9
20260507075042 53 14 0.0 0.0 0.00 0.00 0.00 83 1014.1
20260507074539 53 15 0.0 2.0 0.00 0.00 0.00 82 1014.1
20260507074037 53 331 2.0 2.0 0.00 0.00 0.00 79 1013.9
20260507073533 53 16 1.0 3.0 0.00 0.00 0.00 78 1013.8
20260507073030 53 66 0.0 2.0 0.00 0.00 0.00 79 1013.7
20260507072527 53 43 1.0 3.0 0.00 0.00 0.00 80 1013.5
20260507072025 53 18 2.0 2.0 0.00 0.00 0.00 79 1013.5
20260507071522 53 2 1.0 1.0 0.00 0.00 0.00 80 1013.5
20260507071019 53 11 1.0 1.0 0.00 0.00 0.00 80 1013.6
20260507070516 53 61 0.0 1.0 0.00 0.00 0.00 81 1013.8
20260507070014 53 111 0.0 3.0 0.00 0.00 0.00 80 1013.7
20260507065508 53 29 0.0 0.0 0.00 0.00 0.00 82 1013.9
20260507065006 52 137 0.0 1.0 0.00 0.00 0.00 82 1013.6
20260507064504 52 323 0.0 0.0 0.00 0.00 0.00 83 1013.5
20260507064002 53 318 0.0 0.0 0.00 0.00 0.00 83 1013.7
20260507063458 53 342 0.0 1.0 0.00 0.00 0.00 84 1013.9
20260507062956 52 10 0.0 1.0 0.00 0.00 0.00 83 1013.7
20260507062452 52 347 0.0 0.0 0.00 0.00 0.00 84 1013.8
20260507061950 52 354 0.0 3.0 0.00 0.00 0.00 84 1013.9
20260507061448 52 346 2.0 3.0 0.00 0.00 0.00 85 1014.0
20260507060946 52 334 0.0 1.0 0.00 0.00 0.00 86 1014.1
20260507060443 52 26 1.0 2.0 0.00 0.00 0.00 86 1014.0
20260507055939 52 277 1.0 3.0 0.00 0.00 0.00 86 1014.2
20260507055434 52 252 0.0 0.0 0.00 0.00 0.00 87 1014.1
20260507054932 52 21 0.0 0.0 0.00 0.00 0.00 87 1014.1
20260507054428 52 324 1.0 2.0 0.00 0.00 0.00 88 1014.4
20260507053925 52 336 0.0 0.0 0.00 0.00 0.00 89 1014.5
20260507053422 52 331 1.0 3.0 0.00 0.00 0.00 89 1014.4
20260507052921 52 329 0.0 1.0 0.00 0.00 0.00 90 1014.4
20260507052418 52 337 2.0 6.0 0.00 0.00 0.00 90 1014.5
20260507051915 52 326 1.0 6.0 0.00 0.00 0.00 90 1014.6
20260507051413 52 317 2.0 4.0 0.00 0.00 0.00 90 1014.0
20260507050910 52 65 0.0 4.0 0.00 0.00 0.00 90 1014.1
20260507050406 52 300 4.0 4.0 0.00 0.00 0.00 90 1014.0
20260507045903 53 26 2.0 8.0 0.00 0.00 0.00 89 1014.0
20260507045359 53 9 1.0 7.0 0.00 0.00 0.00 88 1014.0
20260507044856 53 342 3.0 7.0 0.00 0.00 0.00 87 1014.2
20260507044352 54 17 6.0 8.0 0.00 0.00 0.00 85 1013.9
20260507043848 54 329 7.0 9.0 0.00 0.00 0.00 84 1013.8
20260507043345 55 308 3.0 4.0 0.00 0.00 0.00 84 1013.6
20260507042841 55 38 3.0 7.0 0.00 0.00 0.00 83 1013.4
20260507042337 55 323 7.0 9.0 0.00 0.00 0.00 83 1013.7
20260507041834 56 323 4.0 9.0 0.00 0.00 0.00 82 1013.3
20260507041331 56 47 6.0 8.0 0.00 0.00 0.00 82 1013.8
20260507040828 56 327 4.0 9.0 0.00 0.00 0.00 82 1013.5
20260507040324 56 8 4.0 9.0 0.00 0.00 0.00 82 1013.6
20260507035820 57 308 3.0 4.0 0.00 0.07 0.07 82 1012.9
20260507035315 57 91 4.0 4.0 0.00 0.07 0.07 82 1012.4
20260507034814 57 52 1.0 3.0 0.00 0.07 0.07 82 1012.8
20260507034310 57 15 3.0 4.0 0.00 0.07 0.07 82 1013.4
20260507033808 57 17 2.0 7.0 0.00 0.07 0.07 82 1013.9
20260507033306 57 317 4.0 6.0 0.00 0.07 0.07 82 1013.5
20260507032802 57 314 3.0 3.0 0.00 0.07 0.07 81 1013.2
20260507032258 58 104 0.0 3.0 0.00 0.07 0.07 81 1013.1
20260507031755 58 106 0.0 1.0 0.00 0.07 0.07 82 1013.2
20260507031252 58 354 0.0 4.0 0.00 0.07 0.07 81 1013.6
20260507030749 58 31 1.0 7.0 0.00 0.07 0.07 81 1013.6
20260507030246 58 302 2.0 2.0 0.00 0.07 0.07 81 1013.4
20260507025743 58 255 0.0 1.0 0.00 0.07 0.07 81 1013.1
20260507025240 58 348 5.0 7.0 0.00 0.07 0.07 81 1013.7
20260507024739 58 21 4.0 6.0 0.00 0.07 0.07 81 1013.6
20260507024235 58 332 2.0 6.0 0.00 0.07 0.07 81 1013.6
20260507023726 58 334 3.0 4.0 0.00 0.07 0.07 81 1013.1
20260507023223 58 6 3.0 6.0 0.00 0.07 0.07 81 1013.1
20260507022720 59 286 1.0 3.0 0.00 0.07 0.07 80 1013.0
20260507022216 59 298 1.0 3.0 0.00 0.07 0.07 80 1012.9
20260507021712 59 260 2.0 3.0 0.00 0.07 0.07 80 1012.9
20260507021207 59 13 0.0 0.0 0.00 0.07 0.07 80 1012.8
20260507020706 59 331 3.0 9.0 0.00 0.07 0.07 80 1013.1
20260507020202 60 327 2.0 7.0 0.00 0.07 0.07 80 1013.1
20260507015700 60 18 3.0 9.0 0.00 0.07 0.07 81 1013.0
20260507015157 60 53 4.0 7.0 0.00 0.07 0.07 81 1013.1
20260507014653 60 319 6.0 8.0 0.00 0.07 0.07 81 1012.2
20260507014149 60 25 1.0 1.0 0.00 0.07 0.07 81 1012.1
20260507013647 60 289 2.0 3.0 0.00 0.07 0.07 81 1012.1
20260507013144 60 351 0.0 2.0 0.00 0.07 0.07 81 1012.3
20260507012642 60 320 1.0 8.0 0.00 0.07 0.07 80 1012.5
20260507012137 61 322 4.0 8.0 0.00 0.07 0.07 80 1012.3
20260507011635 61 339 3.0 6.0 0.00 0.07 0.07 80 1012.3
20260507011131 61 318 3.0 4.0 0.00 0.07 0.07 80 1012.4
20260507010626 61 43 2.0 7.0 0.00 0.07 0.07 80 1012.3
20260507010122 62 328 2.0 7.0 0.00 0.07 0.07 80 1012.3
20260507005619 62 21 4.0 6.0 0.00 0.07 0.07 79 1011.8
20260507005115 62 334 6.0 8.0 0.00 0.07 0.07 78 1011.7
20260507004613 62 323 3.0 3.0 0.00 0.07 0.07 79 1011.9
20260507004110 63 21 2.0 3.0 0.00 0.07 0.07 78 1012.2
20260507003606 63 221 1.0 3.0 0.00 0.07 0.07 77 1012.1
20260507003101 64 23 3.0 10.0 0.00 0.07 0.07 76 1011.7
20260507002558 64 7 5.0 7.0 0.00 0.07 0.07 74 1011.9